| time (UTC) | temp F | wind direction | speed knots | gust knots | rain 1hr in | rain 24hr in | rain mn in | humidity % | barometer mb |
| 20260901074604 | 69 | 360 | 0.0 | 1.7 | 0.00 | 0.00 | 0.00 | 89 | 1013.4 |
| 20260901073059 | 69 | 360 | 0.0 | 0.9 | 0.00 | 0.00 | 0.00 | 88 | 1013.4 |
| 20260901071559 | 69 | 360 | 0.0 | 0.9 | 0.00 | 0.00 | 0.00 | 87 | 1013.6 |
| 20260901070116 | 69 | 360 | 0.0 | 0.9 | 0.00 | 0.00 | 0.00 | 87 | 1013.6 |
| 20260901064606 | 69 | 360 | 0.0 | 0.9 | 0.00 | 0.00 | 0.00 | 87 | 1013.5 |
| 20260901063100 | 69 | 360 | 0.0 | 0.0 | 0.00 | 0.00 | 0.00 | 86 | 1013.4 |
| 20260901061604 | 70 | 360 | 0.0 | 1.7 | 0.00 | 0.00 | 0.00 | 86 | 1013.5 |
| 20260901060052 | 70 | 360 | 0.0 | 1.7 | 0.00 | 0.00 | 0.00 | 87 | 1013.4 |
| 20260901054553 | 70 | 360 | 0.0 | 1.7 | 0.00 | 0.00 | 0.00 | 86 | 1013.4 |
| 20260901053055 | 70 | 360 | 0.9 | 5.2 | 0.00 | 0.00 | 0.00 | 86 | 1013.4 |
| 20260901051548 | 71 | 360 | 0.9 | 3.5 | 0.00 | 0.00 | 0.00 | 87 | 1013.2 |
| 20260901050048 | 71 | 360 | 0.0 | 1.7 | 0.00 | 0.00 | 0.00 | 85 | 1013.2 |
| 20260901044607 | 71 | 360 | 0.9 | 2.6 | 0.00 | 0.00 | 0.00 | 85 | 1013.1 |
| 20260901043047 | 71 | 360 | 0.9 | 4.3 | 0.00 | 0.00 | 0.00 | 84 | 1013.0 |
| 20260901041546 | 71 | 360 | 0.0 | 0.0 | 0.00 | 0.00 | 0.00 | 84 | 1012.9 |
| 20260901040057 | 71 | 360 | 0.9 | 3.5 | 0.00 | 0.00 | 0.00 | 83 | 1012.9 |
| 20260901034545 | 71 | 360 | 0.9 | 4.3 | 0.00 | 0.00 | 0.00 | 83 | 1012.9 |
| 20260901033043 | 71 | 360 | 0.9 | 3.5 | 0.00 | 0.00 | 0.00 | 83 | 1012.6 |
| 20260901031543 | 71 | 360 | 0.0 | 4.3 | 0.00 | 0.00 | 0.00 | 84 | 1012.6 |
| 20260901030043 | 71 | 360 | 1.7 | 4.3 | 0.00 | 0.00 | 0.00 | 84 | 1012.4 |
| 20260901024549 | 71 | 360 | 0.9 | 5.2 | 0.00 | 0.00 | 0.00 | 84 | 1012.1 |
| 20260901023047 | 71 | 360 | 1.7 | 5.2 | 0.00 | 0.00 | 0.00 | 84 | 1011.9 |
| 20260901021602 | 71 | 360 | 1.7 | 5.2 | 0.00 | 0.00 | 0.00 | 84 | 1011.7 |
| 20260901020040 | 72 | 360 | 2.6 | 6.1 | 0.00 | 0.00 | 0.00 | 83 | 1011.8 |
| 20260901014540 | 72 | 360 | 1.7 | 6.1 | 0.00 | 0.00 | 0.00 | 83 | 1011.7 |
| 20260901013039 | 72 | 360 | 2.6 | 6.1 | 0.00 | 0.00 | 0.00 | 82 | 1011.6 |
| 20260901011537 | 72 | 360 | 1.7 | 7.8 | 0.00 | 0.00 | 0.00 | 82 | 1011.6 |
| 20260901010040 | 72 | 360 | 3.5 | 7.8 | 0.00 | 0.00 | 0.00 | 81 | 1011.7 |
| 20260901004537 | 73 | 360 | 2.6 | 7.0 | 0.00 | 0.00 | 0.00 | 80 | 1011.7 |
| 20260901003038 | 73 | 281 | 4.3 | 7.8 | 0.00 | 0.00 | 0.00 | 80 | 1011.9 |
| 20260901001539 | 73 | 300 | 3.5 | 8.7 | 0.00 | 0.00 | 0.00 | 80 | 1011.8 |
| 20260901000038 | 74 | 325 | 3.5 | 7.0 | 0.00 | 0.00 | 0.00 | 79 | 1011.8 |
| 20260831234535 | 75 | 315 | 3.5 | 7.0 | 0.00 | 0.00 | 0.00 | 78 | 1011.9 |
| 20260831233033 | 75 | 288 | 2.6 | 6.1 | 0.00 | 0.00 | 0.00 | 77 | 1012.0 |
| 20260831231550 | 75 | 288 | 3.5 | 8.7 | 0.00 | 0.00 | 0.00 | 78 | 1012.0 |
| 20260831230033 | 74 | 240 | 1.7 | 8.7 | 0.00 | 0.00 | 0.00 | 78 | 1012.1 |
| 20260831224548 | 75 | 255 | 3.5 | 8.7 | 0.00 | 0.00 | 0.00 | 77 | 1012.2 |
| 20260831223031 | 75 | 252 | 1.7 | 7.8 | 0.00 | 0.00 | 0.00 | 76 | 1012.5 |
| 20260831221535 | 76 | 281 | 3.5 | 7.8 | 0.00 | 0.00 | 0.00 | 76 | 1012.6 |
| 20260831220030 | 75 | 277 | 4.3 | 8.7 | 0.00 | 0.00 | 0.00 | 76 | 1012.6 |
| 20260831214535 | 74 | 264 | 5.2 | 12.2 | 0.00 | 0.00 | 0.00 | 79 | 1012.6 |
| 20260831213027 | 75 | 271 | 4.3 | 9.6 | 0.00 | 0.00 | 0.00 | 77 | 1012.7 |
| 20260831211527 | 75 | 275 | 4.3 | 8.7 | 0.00 | 0.00 | 0.00 | 78 | 1012.7 |
| 20260831210031 | 76 | 253 | 0.9 | 8.7 | 0.00 | 0.00 | 0.00 | 76 | 1012.9 |
| 20260831204530 | 76 | 238 | 2.6 | 10.4 | 0.00 | 0.00 | 0.00 | 77 | 1012.9 |
| 20260831203033 | 75 | 268 | 3.5 | 9.6 | 0.00 | 0.00 | 0.00 | 76 | 1013.1 |
| 20260831201522 | 76 | 236 | 3.5 | 7.8 | 0.00 | 0.00 | 0.00 | 75 | 1013.1 |
| 20260831200022 | 76 | 267 | 3.5 | 8.7 | 0.00 | 0.00 | 0.00 | 75 | 1013.1 |
| 20260831194519 | 75 | 307 | 4.3 | 8.7 | 0.00 | 0.00 | 0.00 | 75 | 1013.3 |
| 20260831193019 | 75 | 218 | 3.5 | 9.6 | 0.00 | 0.00 | 0.00 | 76 | 1013.2 |
| 20260831191534 | 75 | 250 | 2.6 | 8.7 | 0.00 | 0.00 | 0.00 | 77 | 1013.3 |
| 20260831190015 | 75 | 275 | 3.5 | 7.8 | 0.00 | 0.00 | 0.00 | 76 | 1013.4 |
| 20260831184514 | 75 | 227 | 0.9 | 7.8 | 0.00 | 0.00 | 0.00 | 77 | 1013.4 |
| 20260831183024 | 75 | 322 | 2.6 | 6.1 | 0.00 | 0.00 | 0.00 | 75 | 1013.4 |
| 20260831181510 | 75 | 284 | 1.7 | 8.7 | 0.00 | 0.00 | 0.00 | 76 | 1013.3 |
| 20260831180009 | 76 | 223 | 1.7 | 6.1 | 0.00 | 0.00 | 0.00 | 75 | 1013.4 |
| 20260831174505 | 75 | 171 | 3.5 | 6.1 | 0.00 | 0.00 | 0.00 | 75 | 1013.2 |
| 20260831173002 | 75 | 214 | 0.9 | 5.2 | 0.00 | 0.00 | 0.00 | 76 | 1013.1 |
| 20260831171602 | 74 | 259 | 1.7 | 6.1 | 0.00 | 0.00 | 0.00 | 77 | 1013.1 |
| 20260831170105 | 74 | 310 | 1.7 | 6.1 | 0.00 | 0.00 | 0.00 | 77 | 1013.0 |
| 20260831164655 | 74 | 209 | 0.0 | 4.3 | 0.00 | 0.00 | 0.00 | 77 | 1012.9 |
| 20260831163053 | 74 | 280 | 1.7 | 5.2 | 0.00 | 0.00 | 0.00 | 77 | 1012.9 |
| 20260831161551 | 74 | 267 | 0.9 | 4.3 | 0.00 | 0.00 | 0.00 | 77 | 1012.9 |
| 20260831160049 | 74 | 217 | 0.9 | 0.0 | 0.00 | 0.00 | 0.00 | 77 | 1012.9 |
| 20260831154614 | 74 | 271 | 0.0 | 3.5 | 0.00 | 0.00 | 0.00 | 78 | 1012.9 |
| 20260831153046 | 74 | 297 | 0.0 | 0.0 | 0.00 | 0.00 | 0.00 | 78 | 1012.9 |
| 20260831151559 | 73 | 194 | 0.0 | 0.0 | 0.00 | 0.00 | 0.00 | 79 | 1012.7 |
| 20260831150041 | 73 | 288 | 0.0 | 0.0 | 0.00 | 0.00 | 0.00 | 81 | 1012.5 |
| 20260831144539 | 72 | 288 | 0.0 | 1.7 | 0.00 | 0.00 | 0.00 | 81 | 1012.5 |
| 20260831143038 | 72 | 288 | 0.0 | 4.3 | 0.00 | 0.00 | 0.00 | 81 | 1012.5 |
| 20260831141537 | 71 | 288 | 0.0 | 0.0 | 0.00 | 0.00 | 0.00 | 82 | 1012.4 |
| 20260831140035 | 71 | 360 | 0.0 | 0.0 | 0.00 | 0.00 | 0.00 | 83 | 1012.2 |
| 20260831134535 | 71 | 360 | 0.0 | 0.0 | 0.00 | 0.00 | 0.00 | 83 | 1011.8 |
| 20260831133035 | 71 | 360 | 0.0 | 0.0 | 0.00 | 0.00 | 0.00 | 83 | 1011.7 |
| 20260831131532 | 71 | 360 | 0.0 | 0.0 | 0.00 | 0.00 | 0.00 | 84 | 1011.6 |
| 20260831130037 | 71 | 360 | 0.0 | 0.0 | 0.00 | 0.00 | 0.00 | 84 | 1011.6 |
| 20260831124543 | 71 | 360 | 0.0 | 0.0 | 0.00 | 0.00 | 0.00 | 84 | 1011.5 |
| 20260831123028 | 71 | 360 | 0.0 | 1.7 | 0.00 | 0.00 | 0.00 | 85 | 1011.5 |
| 20260831121541 | 71 | 360 | 0.0 | 0.9 | 0.00 | 0.00 | 0.00 | 85 | 1011.4 |
| 20260831120034 | 71 | 360 | 0.0 | 0.0 | 0.00 | 0.00 | 0.00 | 85 | 1011.5 |
| 20260831114531 | 71 | 360 | 0.0 | 1.7 | 0.00 | 0.00 | 0.00 | 85 | 1011.5 |
| 20260831113026 | 71 | 360 | 0.0 | 0.9 | 0.00 | 0.00 | 0.00 | 84 | 1011.4 |
| 20260831111524 | 71 | 360 | 0.0 | 3.5 | 0.00 | 0.00 | 0.00 | 84 | 1011.4 |
| 20260831110024 | 71 | 360 | 0.0 | 0.0 | 0.00 | 0.00 | 0.00 | 84 | 1011.4 |
| 20260831104521 | 71 | 360 | 0.0 | 0.9 | 0.00 | 0.00 | 0.00 | 84 | 1011.4 |
| 20260831103028 | 71 | 360 | 0.0 | 0.9 | 0.00 | 0.00 | 0.00 | 85 | 1011.6 |
| 20260831101525 | 71 | 360 | 0.0 | 1.7 | 0.00 | 0.00 | 0.00 | 85 | 1011.5 |
| 20260831100021 | 71 | 360 | 0.0 | 0.9 | 0.00 | 0.00 | 0.00 | 85 | 1011.5 |
| 20260831094517 | 71 | 360 | 0.0 | 0.9 | 0.00 | 0.00 | 0.00 | 86 | 1011.7 |
| 20260831093032 | 71 | 360 | 0.0 | 0.0 | 0.00 | 0.00 | 0.00 | 85 | 1011.7 |
| 20260831091514 | 72 | 360 | 0.0 | 1.7 | 0.00 | 0.00 | 0.00 | 86 | 1011.5 |
| 20260831090014 | 72 | 360 | 0.0 | 0.0 | 0.00 | 0.00 | 0.00 | 86 | 1011.5 |
| 20260831084512 | 72 | 360 | 0.0 | 1.7 | 0.00 | 0.00 | 0.00 | 86 | 1011.6 |
| 20260831083011 | 72 | 360 | 0.0 | 0.0 | 0.00 | 0.00 | 0.00 | 86 | 1011.7 |
| 20260831081509 | 72 | 360 | 0.0 | 3.5 | 0.00 | 0.00 | 0.00 | 86 | 1011.8 |
| 20260831080006 | 72 | 360 | 0.0 | 0.0 | 0.00 | 0.00 | 0.00 | 87 | 1011.9 |